Regional Weather Roundup
Issued by NWS

Home | Current Version | Previous Version | Graphics & Text | Print | Product List | Glossary On
Versions: 1 2 3 4 5 6 7 8 9 10 11 12 13 14 15 16 17 18 19 20 21 22 23 24 25 26 27 28 29 30 31 32 33 34 35 36 37 38 39 40 41 42 43 44 45 46 47 48 49 50
000
ASUS43 KLMK 221602
RWRKY
KENTUCKY REGIONAL WEATHER ROUNDUP
NATIONAL WEATHER SERVICE LOUISVILLE KY
1200 PM EDT FRI AUG 22 2014

NOTE "FAIR" INDICATES FEW OR NO CLOUDS BELOW 12,000 FEET
WITH NO SIGNIFICANT WEATHER AND/OR OBSTRUCTIONS TO VISIBILITY.

KYZ001>023-026-027-061>063-070>075-221700-
WESTERN AND SOUTH CENTRAL KENTUCKY

CITY           SKY/WX    TMP DP  RH WIND       PRES   REMARKS
PADUCAH        PTSUNNY   88  76  67 SW10      30.05S HX  99
HENDERSON      PTSUNNY   86  75  70 W6        30.03F HX  95
OWENSBORO      PTSUNNY   87  76  69 W8        30.05S HX  97
HOPKINSVILLE   PTSUNNY   87  76  71 W12       30.08F HX  97
BOWLING GREEN  PTSUNNY   86  73  65 W9        30.09R HX  93
GLASGOW        PTSUNNY   83  72  69 W6        30.10R
$$

KYZ024-025-028>034-038-045-046-053-221700-
NORTH CENTRAL KENTUCKY

CITY           SKY/WX    TMP DP  RH WIND       PRES   REMARKS
LOUISVILLE/SDF CLOUDY    85  74  69 W8        30.03F HX  92
LOUISVILLE/LOU PTSUNNY   85  73  67 NW9       30.04S HX  91
FORT KNOX      CLOUDY    85  75  73 W8        30.05S HX  93
$$

KYZ035>037-039>044-047>052-055>060-089>105-221700-
NORTHEAST KENTUCKY

CITY           SKY/WX    TMP DP  RH WIND       PRES   REMARKS
LEXINGTON      PTSUNNY   86  74  67 W10       30.06S HX  94
COVINGTON      CLOUDY    77  72  84 W7        30.03
FRANKFORT      CLOUDY    84  73  69 W12       30.04S HX  90
$$

KYZ054-064>069-076>088-106>120-221700-
SOUTHEAST KENTUCKY

CITY           SKY/WX    TMP DP  RH WIND       PRES   REMARKS
JACKSON        MOSUNNY   84  74  71 CALM      30.09F HX  91
LONDON         MOSUNNY   85  72  65 SW9       30.11S HX  91
SOMERSET       PTSUNNY   82  73  74 W10       30.11S
MIDDLESBORO    PTSUNNY   85  72  64 W5        30.12S HX  91
MONTICELLO     MOSUNNY   87  75  67 SW8       30.12S HX  96
$$




USA.gov is the U.S. government's official web portal to all federal, state and local government web resources and services.